Weather Roundup
Issued by NWS Chicago, IL

Home | Current Version | Previous Version | Text Only | Print | Product List | Glossary On
Versions: 1 2 3 4 5 6 7 8 9 10 11 12 13 14 15 16 17 18 19 20 21 22 23 24 25 26 27 28 29 30 31 32 33 34 35 36 37 38 39 40 41 42 43 44 45 46 47 48 49 50
000
NZUS59 KLOT 271308
HRRLOT

CHICAGO AREA WEATHER ROUNDUP
NATIONAL WEATHER SERVICE CHICAGO/ROMEOVILLE IL
800 AM CDT FRI MAY 27 2016

NOTE: "FAIR" INDICATES FEW OR NO CLOUDS BELOW 12,000 FEET WITH NO
SIGNIFICANT WEATHER AND/OR OBSTRUCTIONS TO VISIBILITY.

* THESE STATIONS ARE NOT UNDER NWS QUALITY CONTROL. THEY ALSO MAY NOT
  REPORT WEATHER SUCH AS PRECIPITATION OR FOG.

ILZ005-006-012>014-019>023-271400-
NORTHEAST ILLINOIS

CITY           SKY/WX    TMP DP  RH WIND       PRES   REMARKS
OHARE          CLOUDY    71  65  81 S10       29.89R
MIDWAY         CLOUDY    71  63  75 S13       29.90R
AURORA         CLOUDY    69  65  86 S8        29.90R
LANSING*       PTSUNNY   69  64  82 S13       29.92S
JOLIET*        CLOUDY    71  66  85 SW7       29.91R
WAUKEGAN       CLOUDY    72  66  81 S7        29.87S
DUPAGE AIRPORT CLOUDY    69  63  81 S14       29.89R
WHEELING       CLOUDY    70  64  81 S9        29.89S
KANKAKEE*      CLOUDY    72  64  77 S15       29.93R
MORRIS*        CLOUDY    71  65  80 S9        29.90R
LEWIS AIRPORT* CLOUDY    69  63  80 S14       29.91R
$$

WIZ051-052-058>065-066-070>072-271400-
SOUTHEAST WISCONSIN

CITY           SKY/WX    TMP DP  RH WIND       PRES   REMARKS
MILWAUKEE      PTSUNNY   72  67  84 SW5       29.86F
KENOSHA*       CLOUDY    73  67  81 S5        29.87S
RACINE*        CLOUDY    73  66  78 SE5       29.88S
BURLINGTON     CLOUDY    69  67  91 CALM      29.86S
WAUKESHA       SUNNY     66  64  94 CALM      29.86F FOG
WEST BEND      CLOUDY    66  63  88 CALM      29.87S
$$

INZ001>003-010>013-019-020-271400-
NORTHWEST INDIANA

CITY           SKY/WX    TMP DP  RH WIND       PRES   REMARKS
GARY*          PTSUNNY   72  70  94 S7        29.92S
MICHIGAN CITY* NOT AVBL
RENSSELAER*    NOT AVBL
VALPARAISO     MOSUNNY   69  63  81 S13       29.94S
$$

LMZ740>746-271400-
SOUTHERN LAKE MICHIGAN

STATION/POSITION TIME  SKY/WX   TEMP WIND        PRES    VSBY
                                AIR  DIR/SP/G
                 (UTC)          (F)  (DEG/KT/KT) (MB)    (MI)
HARRISON CRIB    1200            68  180/ 13/ 13   N/A
BURNHAM HARBOR   1300            71  210/  9/ 14   N/A
CALUMET HARBOR   1200            68  160/  7/  9 1012.0R
BURNS HARBOR     NOT AVBL
MICHIGAN CITY    1200            67  140/  9/ 11   N/A
$$

ABBREVIATIONS USED IN REMARKS
   TC - TEMPERATURE IN CELSIUS
  WCI - WIND CHILL INDEX
   HX - HEAT INDEX
  VSB - VISIBILITY
$$



USA.gov is the U.S. government's official web portal to all federal, state and local government web resources and services.